Simultaneous Nadir Overpasses (SNOs) Predictions

Prediction of SNOs between GOES-15 and TERRA Satellite Orbit:

Table of predicted SNOs for the next 14.0 days since TLE Epoch: 3/18/2023
Index Date Time (GOES-15) GOES-15 Lat,Lon TERRA Lat,Lon Distance(km) Time Diff (sec)
1 03/18/2023 18:31:10 -0.10,-127.74 -0.60,-125.24 283.60 80
2 03/19/2023 06:48:55 0.11,-127.73 -0.41,-130.21 281.27 80
3 03/21/2023 06:35:32 0.11,-127.81 0.45,-126.34 168.63 80
4 03/21/2023 18:53:08 -0.11,-127.87 0.57,-131.26 385.40 80
5 03/23/2023 18:39:44 -0.11,-127.94 -0.25,-127.38 64.38 80
6 03/26/2023 06:41:23 0.12,-128.00 0.01,-128.45 51.45 80
7 03/28/2023 06:27:59 0.13,-128.07 0.89,-124.58 397.46 80
8 03/28/2023 18:45:34 -0.14,-128.12 0.18,-129.49 156.81 80
9 03/30/2023 18:32:09 -0.14,-128.18 -0.67,-125.61 291.74 80
10 03/31/2023 06:49:52 0.15,-128.16 -0.33,-130.57 273.58 80
